Location: Dos Palmas
(32.4468°N, 116.8732°W)
Time: 00:29:53
(UTC+00:00)

Resurs 1-4 Rocket - Pass Details

Date: 20 June 2021
Orbit: 800 x 813 km, 98.6° (Epoch: 01 August)

Event Time Altitude Azimuth Distance (km) Brightness Sun altitude
Rises 09:42:34 0° 5° (N) 3,338 6.3 -27.9°
Reaches altitude 10° 09:44:59 10° 0° (N) 2,404 5.3 -27.6°
Enters shadow 09:49:47 48° 298° (WNW) 1,057 2.6 -27.1°
